sat.trackr.live / text

‹ back to catalog

STARLINK-35383

NORAD 65793 · 2025-218C

PAYLOAD ACTIVE UNKNOWN

§ Identity

Operator
Country
US
Launch date
2025-09-26
Launch site
AFWTR
Launch vehicle
Mass (kg)
RCS (m²)

Purposes: comms

External: N2YO · Heavens-Above · Gunter

§ Orbital elements

Epoch: 2026-05-25T02:55:15.637728Z

Period
95.64 min
Inclination
97.4522°
Eccentricity
0.0002012
Mean motion
15.05661673 rev/d
Perigee alt
548.1 km
Apogee alt
550.9 km
Semi-major
6,927.6 km
B*
4.1234e-4
RAAN
7.9583°
Arg perigee
101.1158°
Mean anomaly
259.0295°
Rev number
3,647

§ Raw data

STARLINK-353831 65793U 25218C   26145.12170877  .00005898  00000+0  41234-3 0  99952 65793  97.4522   7.9583 0002012 101.1158 259.0295 15.05661673 36477

JSON: /api/v1/satellites/65793 · /tle

For live sub-satellite position, see the globe view (requires WebGL).

§ Visibility from observer

Set your observer location to see the next 7 days of passes ≥ 10°. The values pass through the URL so the page stays shareable.

No JS? Fill the form by hand. The geolocation button needs JavaScript.